TimeCST,TemperatureF,Dew PointF,Humidity,Sea Level PressureIn,VisibilityMPH,Wind Direction,Wind SpeedMPH,Gust SpeedMPH,PrecipitationIn,Events,Conditions,WindDirDegrees,DateUTC
12:15 AM,33.8,28.4,81,30.16,10.0,ESE,5.8,-,N/A,,Clear,120,2012-12-06 06:15:00
7:35 AM,33.8,30.2,87,30.10,10.0,SE,6.9,-,N/A,,Clear,140,2012-12-06 13:35:00
7:55 AM,33.8,30.2,87,30.10,10.0,SE,9.2,-,N/A,,Clear,140,2012-12-06 13:55:00
8:15 AM,33.8,30.2,87,30.09,10.0,SE,9.2,-,N/A,,Clear,140,2012-12-06 14:15:00
8:35 AM,35.6,30.2,81,30.09,10.0,SE,9.2,-,N/A,,Clear,140,2012-12-06 14:35:00
8:55 AM,35.6,32.0,87,30.08,10.0,SE,10.4,-,N/A,,Clear,140,2012-12-06 14:55:00
9:15 AM,37.4,33.8,87,30.07,10.0,SE,9.2,-,N/A,,Clear,140,2012-12-06 15:15:00
9:35 AM,39.2,33.8,81,30.07,10.0,SSE,13.8,-,N/A,,Clear,150,2012-12-06 15:35:00
9:55 AM,41.0,35.6,81,30.07,10.0,SSE,12.7,-,N/A,,Clear,150,2012-12-06 15:55:00
10:15 AM,41.0,35.6,81,30.06,10.0,SSE,8.1,-,N/A,,Clear,150,2012-12-06 16:15:00
10:35 AM,42.8,35.6,76,30.05,10.0,SSE,9.2,-,N/A,,Clear,150,2012-12-06 16:35:00
10:55 AM,44.6,37.4,76,30.04,10.0,SE,6.9,-,N/A,,Clear,140,2012-12-06 16:55:00
11:15 AM,44.6,37.4,76,30.03,10.0,SSE,6.9,-,N/A,,Clear,160,2012-12-06 17:15:00
11:35 AM,46.4,37.4,71,30.01,10.0,SSE,8.1,-,N/A,,Clear,160,2012-12-06 17:35:00
11:55 AM,46.4,37.4,71,30.00,10.0,SSE,8.1,-,N/A,,Clear,150,2012-12-06 17:55:00
12:15 PM,48.2,37.4,66,30.00,10.0,South,8.1,-,N/A,,Clear,170,2012-12-06 18:15:00
12:35 PM,48.2,37.4,66,29.98,10.0,South,9.2,-,N/A,,Clear,170,2012-12-06 18:35:00
12:55 PM,48.2,39.2,71,29.98,10.0,South,9.2,-,N/A,,Clear,180,2012-12-06 18:55:00
1:15 PM,48.2,39.2,71,29.98,10.0,South,5.8,-,N/A,,Clear,180,2012-12-06 19:15:00
1:35 PM,48.2,39.2,71,29.97,10.0,South,8.1,-,N/A,,Mostly Cloudy,190,2012-12-06 19:35:00
1:55 PM,48.2,39.2,71,29.96,10.0,South,6.9,-,N/A,,Overcast,170,2012-12-06 19:55:00
2:15 PM,48.2,39.2,71,29.96,10.0,South,8.1,-,N/A,,Overcast,170,2012-12-06 20:15:00
2:35 PM,48.2,39.2,71,29.95,10.0,South,8.1,-,N/A,,Scattered Clouds,170,2012-12-06 20:35:00
2:55 PM,48.2,39.2,71,29.95,10.0,SSE,6.9,-,N/A,,Scattered Clouds,160,2012-12-06 20:55:00
3:15 PM,46.4,39.2,76,29.95,10.0,SSE,6.9,-,N/A,,Mostly Cloudy,160,2012-12-06 21:15:00
3:35 PM,46.4,39.2,76,29.94,10.0,SSE,5.8,-,N/A,,Overcast,160,2012-12-06 21:35:00
3:55 PM,46.4,39.2,76,29.95,10.0,SSE,4.6,-,N/A,,Overcast,160,2012-12-06 21:55:00
4:15 PM,46.4,39.2,76,29.94,10.0,SE,3.5,-,N/A,,Mostly Cloudy,130,2012-12-06 22:15:00
4:35 PM,46.4,39.2,76,29.94,10.0,Calm,Calm,-,N/A,,Scattered Clouds,0,2012-12-06 22:35:00
4:55 PM,46.4,39.2,76,29.94,10.0,SSE,3.5,-,N/A,,Scattered Clouds,150,2012-12-06 22:55:00
5:15 PM,44.6,39.2,81,29.94,10.0,SE,4.6,-,N/A,,Mostly Cloudy,140,2012-12-06 23:15:00
5:35 PM,44.6,39.2,81,29.94,10.0,SSE,8.1,-,N/A,,Overcast,160,2012-12-06 23:35:00
5:55 PM,44.6,39.2,81,29.95,10.0,SSE,8.1,-,N/A,,Scattered Clouds,160,2012-12-06 23:55:00
6:15 PM,44.6,39.2,81,29.95,10.0,SSE,4.6,-,N/A,,Scattered Clouds,150,2012-12-07 00:15:00
6:35 PM,44.6,39.2,81,29.94,10.0,SE,4.6,-,N/A,,Clear,130,2012-12-07 00:35:00
6:55 PM,44.6,39.2,81,29.94,10.0,SE,5.8,-,N/A,,Clear,140,2012-12-07 00:55:00
7:15 PM,44.6,39.2,81,29.94,10.0,SE,5.8,-,N/A,,Scattered Clouds,130,2012-12-07 01:15:00
7:35 PM,44.6,39.2,81,29.94,10.0,SE,6.9,-,N/A,,Scattered Clouds,140,2012-12-07 01:35:00
7:55 PM,44.6,39.2,81,29.95,10.0,SSE,4.6,-,N/A,,Scattered Clouds,150,2012-12-07 01:55:00
8:35 PM,44.6,39.2,81,29.95,10.0,SSE,4.6,-,N/A,,Scattered Clouds,160,2012-12-07 02:35:00
8:55 PM,42.8,39.2,87,29.95,10.0,SSE,3.5,-,N/A,,Scattered Clouds,160,2012-12-07 02:55:00
9:15 PM,42.8,39.2,87,29.95,10.0,South,3.5,-,N/A,,Mostly Cloudy,190,2012-12-07 03:15:00
9:35 PM,42.8,39.2,87,29.95,10.0,South,4.6,-,N/A,,Scattered Clouds,180,2012-12-07 03:35:00
9:55 PM,42.8,39.2,87,29.96,10.0,South,4.6,-,N/A,,Scattered Clouds,190,2012-12-07 03:55:00
10:15 PM,42.8,39.2,87,29.96,10.0,South,4.6,-,N/A,,Scattered Clouds,180,2012-12-07 04:15:00
10:35 PM,42.8,39.2,87,29.95,10.0,South,3.5,-,N/A,Rain,Light Rain,170,2012-12-07 04:35:00
10:55 PM,42.8,41.0,93,29.94,10.0,SSE,3.5,-,N/A,,Drizzle,150,2012-12-07 04:55:00
11:15 PM,42.8,41.0,93,29.94,10.0,South,3.5,-,N/A,Rain,Rain,170,2012-12-07 05:15:00
11:35 PM,42.8,41.0,93,29.95,10.0,South,4.6,-,N/A,,Light Drizzle,190,2012-12-07 05:35:00
11:55 PM,42.8,41.0,93,29.94,10.0,SSE,3.5,-,N/A,,Clear,160,2012-12-07 05:55:00